This demonstration page uses our WeatherBlox Daily Observations layout. Learn more.

40.92945, -100.16068

Hourly Observations for January 30, 2017

Temp ( °F °C ) Dew Point ( °F °C ) Humidity (%) Winds ( mph kmh ) Pressure ( in mb ) Visibility ( mi km ) Precip ( " mm )
12:15 am 00:15 Clear 32 -0.2 26 -3.1 81 81 WNW 7 11 30.15 1021 10 16.0934 0 0
12:35 am 00:35 Clear 32 -0.2 26 -3.2 80 80 WNW 8 13 30.15 1021 10 16.0934 0 0
12:55 am 00:55 Clear 31 -0.6 26 -3.3 82 82 NW 7 11 30.15 1021 10 16.0934 0 0
1:15 am 01:15 Clear 31 -0.5 27 -3 83 83 WNW 9 15 30.15 1021 10 16.0934 0 0
1:35 am 01:35 Clear 32 0.2 28 -2.5 82 82 WNW 9 15 30.15 1021 10 16.0934 0 0
1:55 am 01:55 Clear 32 0 27 -2.7 82 82 WNW 7 11 30.15 1021 10 16.0934 0 0
2:15 am 02:15 Clear 32 -0.1 27 -2.7 83 83 WNW 10 17 30.15 1021 10 16.0934 0 0
2:35 am 02:35 Clear 32 0 27 -3 80 80 NW 7 11 30.12 1020 10 16.0934 0 0
2:55 am 02:55 Clear 32 -0.1 27 -3 81 81 W 9 15 30.12 1020 10 16.0934 0 0
3:15 am 03:15 Clear 31 -0.3 27 -3 82 82 WNW 9 15 30.12 1020 10 16.0934 0 0
3:35 am 03:35 Clear 31 -0.7 26 -3.3 83 83 W 9 15 30.12 1020 10 16.0934 0 0
3:55 am 03:55 Clear 30 -1 26 -3.5 83 83 W 9 15 30.12 1020 10 16.0934 0 0
4:15 am 04:15 Clear 31 -0.5 26 -3.3 82 82 WNW 10 17 30.12 1020 10 16.0934 0 0
4:35 am 04:35 Clear 32 -0.2 26 -3.5 79 79 WNW 7 11 30.09 1019 10 16.0934 0 0
4:55 am 04:55 Clear 31 -0.8 25 -3.7 81 81 WNW 9 15 30.09 1019 10 16.0934 0 0
5:15 am 05:15 Clear 30 -1.1 25 -3.7 83 83 WNW 9 15 30.09 1019 10 16.0934 0 0
5:35 am 05:35 Clear 30 -1.3 25 -3.8 83 83 WNW 8 13 30.09 1019 10 16.0934 0 0
5:55 am 05:55 Clear 29 -1.5 24 -4.3 81 81 WNW 6 9 30.06 1018 10 16.0934 0 0
6:15 am 06:15 Clear 29 -1.9 25 -4.1 85 85 W 7 11 30.06 1018 10 16.0934 0 0
6:35 am 06:35 Clear 29 -1.9 24 -4.3 84 84 WNW 6 9 30.06 1018 10 16.0934 0 0
6:55 am 06:55 Clear 29 -1.7 25 -4 85 85 NW 8 13 30.06 1018 10 16.0934 0 0
7:15 am 07:15 Clear 30 -1.1 25 -3.7 83 83 NW 9 15 30.09 1019 10 16.0934 0 0
7:35 am 07:35 Clear 31 -0.5 26 -3.5 80 80 WNW 9 15 30.09 1019 10 16.0934 0 0
7:55 am 07:55 Sunny 30 -1.1 25 -3.7 83 83 W 7 11 30.06 1018 10 16.0934 0 0
8:15 am 08:15 Sunny 31 -0.3 26 -3.3 80 80 WNW 9 15 30.06 1018 10 16.0934 0 0
8:35 am 08:35 Sunny 33 0.5 27 -2.7 79 79 WNW 8 13 30.03 1017 10 16.0934 0 0
8:55 am 08:55 Sunny 34 0.9 28 -2.3 79 79 NW 7 11 30.06 1018 10 16.0934 0 0
9:15 am 09:15 Sunny 37 2.5 29 -1.7 74 74 WNW 9 15 30.06 1018 10 16.0934 0 0
9:35 am 09:35 Sunny 38 3.3 29 -1.5 71 71 WNW 10 17 30.06 1018 10 16.0934 0 0
9:55 am 09:55 Sunny 41 4.9 30 -1 66 66 WNW 8 13 30.03 1017 10 16.0934 0 0
10:15 am 10:15 Sunny 45 7.1 30 -1.1 56 56 WNW 8 13 30 1016 10 16.0934 0 0
10:35 am 10:35 Sunny 47 8.2 29 -1.4 51 51 WNW 10 17 30 1016 10 16.0934 0 0
10:55 am 10:55 Sunny 49 9.6 28 -2.3 44 44 WNW 18 30 30 1016 10 16.0934 0 0
11:15 am 11:15 Sunny 51 10.3 28 -2.5 41 41 WNW 16 26 29.97 1015 10 16.0934 0 0
11:35 am 11:35 Sunny 52 11.2 27 -2.8 38 38 WNW 16 26 29.97 1015 10 16.0934 0 0
11:55 am 11:55 Sunny 53 11.8 26 -3.1 35 35 WNW 14 22 29.97 1015 10 16.0934 0 0
12:15 pm 12:15 Sunny 55 12.5 27 -2.8 35 35 WNW 14 22 29.97 1015 10 16.0934 0 0
12:35 pm 12:35 Sunny 56 13.4 28 -2.4 34 34 WNW 13 20 29.94 1014 10 16.0934 0 0
12:55 pm 12:55 Sunny 58 14.5 29 -1.7 33 33 NW 9 15 29.94 1014 10 16.0934 0 0
1:15 pm 13:15 Sunny 60 15.4 26 -3.6 27 27 NW 12 19 29.91 1013 10 16.0934 0 0
1:35 pm 13:35 Sunny 60 15.5 24 -4.4 25 25 NNW 14 22 29.91 1013 10 16.0934 0 0
1:55 pm 13:55 Sunny 60 15.8 26 -3.6 26 26 WNW 10 17 29.91 1013 10 16.0934 0 0
2:15 pm 14:15 Sunny 61 16.1 23 -4.8 24 24 NNW 16 26 29.88 1012 10 16.0934 0 0
2:35 pm 14:35 Sunny 60 15.6 23 -4.8 24 24 NNW 14 22 29.91 1013 10 16.0934 0 0
2:55 pm 14:55 Sunny 59 15.1 24 -4.3 26 26 NNW 10 17 29.91 1013 10 16.0934 0 0
3:15 pm 15:15 Sunny 58 14.7 25 -4 27 27 N 9 15 29.91 1013 10 16.0934 0 0
3:35 pm 15:35 Sunny 59 15 26 -3.6 28 28 NNW 9 15 29.91 1013 10 16.0934 0 0
3:55 pm 15:55 Sunny 58 14.6 25 -3.8 28 28 NNW 10 17 29.91 1013 10 16.0934 0 0
4:15 pm 16:15 Sunny 58 14.3 26 -3.6 29 29 NNW 8 13 29.91 1013 10 16.0934 0 0
4:35 pm 16:35 Sunny 57 13.8 25 -3.7 30 30 N 7 11 29.91 1013 10 16.0934 0 0
4:55 pm 16:55 Sunny 55 12.6 27 -2.7 35 35 NNW 3 6 29.91 1013 10 16.0934 0 0
5:15 pm 17:15 Sunny 54 12 26 -3.3 34 34 Calm 29.94 1014 10 16.0934 0 0
5:35 pm 17:35 Sunny 53 11.5 24 -4.2 33 33 Calm 29.94 1014 10 16.0934 0 0
5:55 pm 17:55 Clear 51 10.7 24 -4.7 34 34 Calm 29.94 1014 10 16.0934 0 0
6:15 pm 18:15 Clear 48 8.7 24 -4.3 40 40 Calm 29.94 1014 10 16.0934 0 0
6:35 pm 18:35 Clear 44 6.8 25 -3.8 47 47 Calm 29.97 1015 10 16.0934 0 0
6:55 pm 18:55 Clear 42 5.6 25 -3.8 51 51 Calm 30 1016 10 16.0934 0 0
7:15 pm 19:15 Clear 42 5.3 24 -4.2 51 51 Calm 30 1016 10 16.0934 0 0
7:35 pm 19:35 Clear 36 2.1 25 -3.7 66 66 Calm 30.03 1017 10 16.0934 0 0
7:55 pm 19:55 Clear 35 1.9 25 -4 65 65 Calm 30.03 1017 10 16.0934 0 0
8:15 pm 20:15 Clear 37 2.7 25 -3.7 63 63 Calm 30.03 1017 10 16.0934 0 0
8:35 pm 20:35 Clear 32 0.1 25 -3.7 76 76 Calm 30.06 1018 10 16.0934 0 0
8:55 pm 20:55 Clear 33 0.5 26 -3.6 74 74 Calm 30.03 1017 10 16.0934 0 0
9:15 pm 21:15 Clear 33 0.8 26 -3.4 74 74 SE 5 7 30.03 1017 10 16.0934 0 0
9:35 pm 21:35 Clear 32 0.2 26 -3.5 76 76 E 3 6 30.09 1019 10 16.0934 0 0
9:55 pm 21:55 Clear 33 0.6 26 -3.3 75 75 Calm 30.06 1018 10 16.0934 0 0
10:15 pm 22:15 Clear 30 -1 25 -4.1 80 80 Calm 30.09 1019 10 16.0934 0 0
10:35 pm 22:35 Clear 31 -0.3 25 -4 76 76 Calm 30.09 1019 10 16.0934 0 0
10:55 pm 22:55 Clear 30 -1.1 25 -4.1 80 80 Calm 30.09 1019 10 16.0934 0 0
11:15 pm 23:15 Clear 31 -0.3 25 -4.1 76 76 Calm 30.09 1019 10 16.0934 0 0
11:35 pm 23:35 Clear 31 -0.5 26 -3.2 82 82 W 7 11 30.12 1020 10 16.0934 0 0
11:55 pm 23:55 Clear 31 -0.5 26 -3.2 82 82 WSW 6 9 30.12 1020 10 16.0934 0 0

Powered by AerisWeather